Location: Laporte
(40.6264°N, 105.1378°W)
Time: 14:04:35
(UTC+00:00)

Envisat - Pass Details

Date: 24 August 2022
Orbit: 764 x 765 km, 98.2° (Epoch: 26 September)

Event Time Altitude Azimuth Distance (km) Brightness Sun altitude
Rises 10:33:14 0° 25° (NNE) 3,238 7.3 -19.2°
Reaches altitude 10° 10:35:54 10° 38° (NE) 2,307 6.6 -18.7°
Maximum altitude 10:40:10 27° 95° (E) 1,451 5.0 -18.1°
Drops below altitude 10° 10:44:23 10° 152° (SSE) 2,292 5.4 -17.4°
Sets 10:47:01 0° 164° (SSE) 3,213 6.1 -17.0°
